Location: Carrières
(48.9495°N, 2.0407°E)
Time: 18:30:35
(UTC+00:00)

Altair - Pass Details

Date: 23 April 2024
Orbit: 1502 x 1682 km, 47.2° (Epoch: 21 May)

Event Time Altitude Azimuth Distance (km) Brightness Sun altitude
Rises 00:51:53 0° 290° (WNW) 4,827 10.1 -26.9°
Reaches altitude 10° 00:55:30 10° 280° (W) 3,810 9.5 -26.7°
Enters shadow 01:00:42 26° 251° (WSW) 2,713 8.4 -26.5°
